| time (UTC) | temp F | wind direction | speed MPH | gust MPH | rain 1hr in | rain 24hr in | rain mn in | humidity % | barometer mb |
| 20260510000022 | 70 | 342 | 0.0 | 0.0 | 0.00 | 0.11 | 0.05 | 1 | 1012.3 |
| 20260509234527 | 70 | 338 | 0.0 | 0.0 | 0.00 | 0.11 | 0.05 | 1 | 1011.9 |
| 20260509233020 | 70 | 338 | 0.0 | 0.0 | 0.00 | 0.11 | 0.05 | 1 | 1012.0 |
| 20260509231508 | 70 | 338 | 0.0 | 0.0 | 0.00 | 0.11 | 0.05 | 1 | 1011.8 |
| 20260509230011 | 70 | 338 | 0.0 | 0.0 | 0.00 | 0.11 | 0.05 | 1 | 1011.6 |
| 20260509224600 | 70 | 338 | 0.0 | 0.0 | 0.00 | 0.11 | 0.05 | 1 | 1011.3 |
| 20260509223055 | 71 | 260 | 0.0 | 0.0 | 0.01 | 0.11 | 0.05 | 1 | 1011.5 |
| 20260509221551 | 71 | 213 | 0.0 | 0.0 | 0.01 | 0.11 | 0.05 | 1 | 1011.7 |
| 20260509220046 | 71 | 306 | 0.0 | 0.0 | 0.01 | 0.11 | 0.05 | 1 | 1011.8 |
| 20260509214542 | 71 | 306 | 0.0 | 0.0 | 0.01 | 0.11 | 0.05 | 1 | 1011.8 |
| 20260509213041 | 71 | 67 | 0.0 | 0.0 | 0.00 | 0.10 | 0.04 | 1 | 1011.9 |
| 20260509211538 | 71 | 67 | 0.0 | 0.0 | 0.01 | 0.10 | 0.04 | 1 | 1012.3 |
| 20260509210029 | 71 | 67 | 0.0 | 0.0 | 0.01 | 0.10 | 0.04 | 1 | 1012.1 |
| 20260509204525 | 72 | 67 | 0.0 | 0.0 | 0.01 | 0.10 | 0.04 | 1 | 1011.9 |
| 20260509203022 | 72 | 68 | 0.0 | 0.0 | 0.01 | 0.10 | 0.04 | 1 | 1012.2 |
| 20260509201517 | 72 | 68 | 0.0 | 0.0 | 0.00 | 0.09 | 0.03 | 1 | 1012.1 |
| 20260509200013 | 72 | 68 | 0.0 | 0.0 | 0.00 | 0.09 | 0.03 | 1 | 1012.2 |
| 20260509194511 | 73 | 68 | 0.0 | 0.0 | 0.01 | 0.09 | 0.03 | 1 | 1012.3 |
| 20260509193002 | 73 | 68 | 0.0 | 0.0 | 0.02 | 0.09 | 0.03 | 1 | 1012.3 |
| 20260509191558 | 74 | 217 | 0.0 | 0.0 | 0.02 | 0.09 | 0.03 | 1 | 1012.2 |
| 20260509190053 | 74 | 217 | 0.0 | 0.0 | 0.02 | 0.09 | 0.03 | 1 | 1012.1 |
| 20260509184550 | 75 | 217 | 0.0 | 0.0 | 0.01 | 0.08 | 0.02 | 1 | 1012.1 |
| 20260509183111 | 75 | 217 | 0.0 | 0.0 | 0.00 | 0.07 | 0.01 | 1 | 1012.0 |
| 20260509181554 | 76 | 281 | 0.0 | 0.0 | 0.00 | 0.07 | 0.01 | 1 | 1012.0 |
| 20260509180036 | 77 | 284 | 0.0 | 0.0 | 0.00 | 0.07 | 0.01 | 1 | 1012.2 |
| 20260509174535 | 77 | 250 | 0.0 | 0.0 | 0.00 | 0.07 | 0.01 | 1 | 1012.3 |
| 20260509173027 | 77 | 302 | 0.0 | 0.0 | 0.00 | 0.07 | 0.01 | 1 | 1012.4 |
| 20260509171525 | 76 | 260 | 0.0 | 0.0 | 0.00 | 0.07 | 0.01 | 1 | 1012.5 |
| 20260509170018 | 76 | 271 | 0.0 | 0.0 | 0.00 | 0.07 | 0.01 | 1 | 1012.6 |
| 20260509164513 | 75 | 240 | 0.0 | 2.0 | 0.00 | 0.07 | 0.01 | 1 | 1012.7 |
| 20260509163008 | 75 | 279 | 0.0 | 3.0 | 0.00 | 0.07 | 0.01 | 1 | 1012.9 |
| 20260509161504 | 73 | 265 | 0.0 | 5.0 | 0.00 | 0.07 | 0.01 | 1 | 1012.8 |
| 20260509160101 | 72 | 275 | 1.0 | 5.0 | 0.00 | 0.07 | 0.01 | 1 | 1012.8 |
| 20260509154558 | 71 | 290 | 0.0 | 0.0 | 0.00 | 0.07 | 0.01 | 1 | 1012.9 |
| 20260509153051 | 71 | 291 | 0.0 | 0.0 | 0.00 | 0.07 | 0.01 | 1 | 1013.3 |
| 20260509151547 | 71 | 303 | 0.0 | 0.0 | 0.00 | 0.07 | 0.01 | 1 | 1013.3 |
| 20260509150042 | 71 | 66 | 0.0 | 0.0 | 0.00 | 0.07 | 0.01 | 1 | 1013.4 |
| 20260509144540 | 71 | 66 | 0.0 | 0.0 | 0.00 | 0.07 | 0.01 | 1 | 1013.5 |
| 20260509143034 | 71 | 66 | 0.0 | 0.0 | 0.00 | 0.07 | 0.01 | 1 | 1013.6 |
| 20260509141529 | 70 | 66 | 0.0 | 0.0 | 0.00 | 0.07 | 0.01 | 1 | 1013.6 |
| 20260509140024 | 70 | 66 | 0.0 | 0.0 | 0.00 | 0.07 | 0.01 | 1 | 1013.3 |
| 20260509134520 | 69 | 66 | 0.0 | 0.0 | 0.00 | 0.07 | 0.01 | 1 | 1013.2 |
| 20260509133015 | 68 | 66 | 0.0 | 0.0 | 0.00 | 0.07 | 0.01 | 1 | 1013.1 |
| 20260509131511 | 67 | 66 | 0.0 | 0.0 | 0.00 | 0.07 | 0.01 | 1 | 1013.1 |
| 20260509130008 | 66 | 66 | 0.0 | 0.0 | 0.00 | 0.07 | 0.01 | 1 | 1013.3 |
| 20260509124502 | 65 | 66 | 0.0 | 0.0 | 0.00 | 0.07 | 0.01 | 1 | 1013.6 |
| 20260509123059 | 65 | 66 | 0.0 | 0.0 | 0.00 | 0.07 | 0.01 | 1 | 1013.4 |
| 20260509121553 | 64 | 66 | 0.0 | 0.0 | 0.00 | 0.07 | 0.01 | 1 | 1013.1 |
| 20260509120054 | 63 | 66 | 0.0 | 0.0 | 0.00 | 0.07 | 0.01 | 1 | 1012.9 |
| 20260509114545 | 62 | 66 | 0.0 | 0.0 | 0.00 | 0.07 | 0.01 | 1 | 1012.9 |
| 20260509113040 | 62 | 66 | 0.0 | 0.0 | 0.00 | 0.07 | 0.01 | 1 | 1012.8 |
| 20260509111536 | 62 | 66 | 0.0 | 0.0 | 0.00 | 0.07 | 0.01 | 1 | 1012.6 |
| 20260509110035 | 62 | 66 | 0.0 | 0.0 | 0.00 | 0.07 | 0.01 | 1 | 1012.5 |
| 20260509104536 | 62 | 66 | 0.0 | 0.0 | 0.00 | 0.07 | 0.01 | 1 | 1012.3 |
| 20260509103023 | 63 | 66 | 0.0 | 0.0 | 0.00 | 0.07 | 0.01 | 1 | 1012.3 |
| 20260509101519 | 63 | 66 | 0.0 | 0.0 | 0.00 | 0.07 | 0.01 | 1 | 1011.9 |
| 20260509100015 | 63 | 66 | 0.0 | 0.0 | 0.00 | 0.07 | 0.01 | 1 | 1011.7 |
| 20260509094511 | 63 | 66 | 0.0 | 0.0 | 0.00 | 0.07 | 0.01 | 1 | 1011.8 |
| 20260509093008 | 63 | 66 | 0.0 | 0.0 | 0.00 | 0.07 | 0.01 | 1 | 1011.6 |
| 20260509091504 | 63 | 66 | 0.0 | 0.0 | 0.00 | 0.07 | 0.01 | 1 | 1012.2 |
| 20260509084557 | 64 | 66 | 0.0 | 0.0 | 0.00 | 0.07 | 0.01 | 1 | 1012.0 |
| 20260509083051 | 64 | 66 | 0.0 | 0.0 | 0.00 | 0.07 | 0.01 | 1 | 1012.6 |
| 20260509081545 | 64 | 66 | 0.0 | 0.0 | 0.00 | 0.07 | 0.01 | 1 | 1011.9 |
| 20260509080050 | 64 | 66 | 0.0 | 0.0 | 0.00 | 0.07 | 0.01 | 1 | 1012.2 |
| 20260509074539 | 64 | 66 | 0.0 | 0.0 | 0.00 | 0.07 | 0.01 | 1 | 1012.6 |
| 20260509073038 | 64 | 66 | 0.0 | 0.0 | 0.00 | 0.07 | 0.01 | 1 | 1012.8 |
| 20260509071531 | 64 | 66 | 0.0 | 0.0 | 0.00 | 0.07 | 0.01 | 1 | 1012.3 |
| 20260509070027 | 64 | 66 | 0.0 | 0.0 | 0.00 | 0.07 | 0.01 | 1 | 1012.7 |
| 20260509064525 | 64 | 66 | 0.0 | 0.0 | 0.00 | 0.07 | 0.01 | 1 | 1012.6 |
| 20260509063018 | 65 | 66 | 0.0 | 0.0 | 0.00 | 0.07 | 0.01 | 1 | 1013.0 |
| 20260509061516 | 65 | 66 | 0.0 | 0.0 | 0.00 | 0.07 | 0.01 | 1 | 1013.0 |
| 20260509060009 | 65 | 66 | 0.0 | 0.0 | 0.00 | 0.07 | 0.01 | 1 | 1013.6 |
| 20260509054505 | 65 | 66 | 0.0 | 0.0 | 0.00 | 0.07 | 0.01 | 1 | 1013.3 |
| 20260509053108 | 65 | 66 | 0.0 | 0.0 | 0.00 | 0.07 | 0.01 | 1 | 1013.2 |
| 20260509051602 | 66 | 66 | 0.0 | 0.0 | 0.00 | 0.07 | 0.01 | 1 | 1013.4 |
| 20260509050056 | 66 | 66 | 0.0 | 0.0 | 0.00 | 0.07 | 0.01 | 1 | 1014.1 |
| 20260509044548 | 66 | 66 | 0.0 | 0.0 | 0.01 | 0.07 | 0.01 | 1 | 1014.4 |
| 20260509043042 | 66 | 66 | 0.0 | 0.0 | 0.02 | 0.07 | 0.01 | 1 | 1014.2 |
| 20260509041538 | 66 | 66 | 0.0 | 0.0 | 0.04 | 0.07 | 0.01 | 1 | 1014.2 |
| 20260509040037 | 66 | 66 | 0.0 | 0.0 | 0.05 | 0.07 | 0.01 | 1 | 1014.6 |
| 20260509034532 | 66 | 66 | 0.0 | 0.0 | 0.06 | 0.06 | 0.06 | 1 | 1014.0 |
| 20260509033032 | 66 | 66 | 0.0 | 0.0 | 0.05 | 0.05 | 0.05 | 1 | 1014.9 |
| 20260509031532 | 66 | 66 | 0.0 | 0.0 | 0.03 | 0.03 | 0.03 | 1 | 1015.2 |
| 20260509030026 | 66 | 66 | 0.0 | 0.0 | 0.01 | 0.01 | 0.01 | 1 | 1015.2 |
| 20260509024521 | 66 | 66 | 0.0 | 0.0 | 0.00 | 0.00 | 0.00 | 1 | 1015.6 |
| 20260509023016 | 66 | 66 | 0.0 | 0.0 | 0.00 | 0.00 | 0.00 | 1 | 1016.0 |
| 20260509021512 | 66 | 66 | 0.0 | 0.0 | 0.00 | 0.00 | 0.00 | 1 | 1015.7 |
| 20260509020012 | 67 | 66 | 0.0 | 0.0 | 0.00 | 0.00 | 0.00 | 1 | 1015.9 |
| 20260509014504 | 67 | 66 | 0.0 | 0.0 | 0.00 | 0.00 | 0.00 | 1 | 1015.6 |
| 20260509013112 | 67 | 66 | 0.0 | 0.0 | 0.00 | 0.00 | 0.00 | 1 | 1015.0 |
| 20260509011555 | 67 | 66 | 0.0 | 0.0 | 0.00 | 0.00 | 0.00 | 1 | 1014.8 |
| 20260509010050 | 67 | 66 | 0.0 | 0.0 | 0.00 | 0.00 | 0.00 | 1 | 1014.7 |
| 20260509004546 | 68 | 66 | 0.0 | 0.0 | 0.00 | 0.00 | 0.00 | 1 | 1014.8 |
| 20260509003042 | 68 | 66 | 0.0 | 0.0 | 0.00 | 0.00 | 0.00 | 1 | 1014.7 |
| 20260509001537 | 68 | 66 | 0.0 | 0.0 | 0.00 | 0.00 | 0.00 | 1 | 1014.6 |